Wind_Speed
55 54 55 55 53 49 51 55 51 48 48 51 47 48 49 50 53 52 52 54 54 55 55 55 56 58 55 56 55 53 46 44 47 51 54 58 62 63 64 69 71 72 73 74 78 79 80 79 79
52 55 54 50 47 48 54 59 54 50 49 50 50 49 51 50 55 54 53 56 59 58 56 55 56 56 58 54 56 58 54 46 45 44 49 52 55 57 60 61 63 62 63 66 66 73 78 78 79
52 55 54 50 50 50 58 60 55 52 53 52 53 53 53 57 59 56 58 59 61 62 56 56 58 58 57 59 57 54 53 47 45 42 44 48 49 52 52 51 54 57 56 57 58 62 66 71 74
58 58 54 51 52 56 62 63 61 57 56 58 56 55 58 62 63 62 60 59 64 65 60 59 61 61 60 59 59 58 53 47 44 42 40 41 40 38 40 36 38 41 38 39 47 54 56 60 64
60 59 58 55 58 61 68 67 63 62 61 61 59 60 62 65 63 64 64 62 64 69 67 64 66 64 62 61 61 57 51 50 45 42 34 36 26 28 26 22 20 19 19 31 37 44 49 52 54
63 62 60 61 62 64 68 70 66 66 64 62 63 64 68 71 65 58 61 63 66 71 72 70 69 67 68 64 64 58 52 49 42 35 28 24 20 18 16 11 13 11 18 19 22 32 44 47 50
61 62 63 63 66 67 74 76 72 69 66 68 66 67 72 70 69 66 67 68 67 69 67 67 66 66 63 63 65 60 55 49 41 34 24 22 27 27 22 27 30 21 23 24 25 29 30 40 43
69 65 59 56 61 61 75 76 73 66 68 68 66 67 71 66 65 67 71 70 66 71 68 64 64 65 67 66 66 62 54 45 39 33 28 36 44 36 34 37 32 33 30 29 28 25 25 32 33
67 73 67 66 61 64 71 69 64 64 70 69 66 64 64 68 69 71 73 72 73 71 69 68 70 71 69 67 61 62 52 43 37 35 35 49 49 49 40 39 39 39 31 25 27 26 24 24 27
58 65 70 71 70 69 70 72 71 70 69 66 64 65 67 70 71 73 73 74 75 71 68 62 66 71 68 56 57 57 49 39 38 39 36 51 54 56 47 43 46 39 30 35 29 25 20 25 21
60 57 72 72 70 71 70 72 72 66 66 67 69 68 67 71 73 72 72 72 71 70 76 74 70 71 65 57 55 50 42 38 39 39 34 50 59 59 52 53 44 40 37 37 24 23 21 22 19
61 63 66 68 71 73 70 74 67 67 70 67 67 65 66 68 68 69 72 73 73 76 81 76 66 68 64 56 50 44 36 36 38 37 35 46 59 63 54 59 47 41 30 27 32 26 29 25 22
60 61 65 66 67 67 65 66 71 69 65 65 62 61 64 66 66 68 69 73 77 80 81 71 64 62 56 47 43 35 35 34 34 35 38 45 50 57 61 61 45 45 35 31 34 32 31 28 24
64 64 62 65 57 64 65 61 65 63 64 60 63 61 59 61 65 67 71 75 77 78 78 67 55 54 39 37 33 33 34 33 34 31 36 40 46 50 67 66 47 46 45 44 37 37 34 30 24
71 75 70 65 69 59 59 55 59 62 63 61 59 59 62 60 61 64 68 75 77 81 70 61 49 43 31 30 29 33 32 31 31 31 34 39 42 49 58 71 58 47 49 47 50 40 38 33 30
72 74 74 71 68 67 62 62 61 62 66 63 61 58 58 61 62 69 70 68 67 67 61 46 43 34 30 25 31 33 30 26 28 31 33 35 40 48 54 69 68 56 53 57 55 50 46 41 38
71 70 69 70 71 69 64 62 60 68 62 60 59 60 59 59 64 69 68 65 62 59 53 41 37 32 27 30 34 32 25 25 28 29 30 33 37 43 55 57 69 58 58 60 58 56 53 47 42
73 69 69 71 74 63 63 60 62 61 62 66 66 62 64 63 67 72 70 64 58 53 44 41 33 32 30 35 31 27 23 25 21 26 30 32 34 40 48 53 60 59 56 57 61 60 56 48 39
70 71 72 75 76 69 60 57 63 64 66 65 67 64 63 66 71 74 68 62 53 45 39 37 36 34 35 36 29 23 23 21 13 18 29 34 34 42 47 51 43 45 49 61 58 57 51 45 41
75 72 74 77 78 69 64 57 57 57 58 61 61 62 66 70 74 70 69 60 45 41 37 37 39 38 37 33 24 23 22 21 16 13 23 35 40 42 43 42 41 44 44 45 47 52 44 45 45
79 75 78 72 76 78 66 61 59 60 65 66 63 65 70 75 72 68 60 51 38 38 35 43 40 39 36 30 23 24 19 21 19 15 21 27 35 40 39 41 35 37 46 44 46 42 47 50 43
78 75 71 66 70 72 70 63 57 67 65 60 62 66 72 70 68 60 55 42 37 37 44 45 42 39 34 25 24 17 12 15 22 19 17 25 36 41 42 42 36 39 37 45 50 49 46 45 43
75 73 72 65 64 60 68 69 71 71 68 67 69 75 76 67 61 60 47 39 37 42 48 46 42 37 33 25 23 13 8 12 19 21 19 28 35 34 34 36 36 34 40 47 46 46 44 42 38
72 67 59 57 60 55 60 65 72 65 67 68 75 73 68 70 56 49 41 35 41 50 49 47 43 38 32 26 23 13 8 13 16 17 22 31 37 40 38 40 36 36 40 43 40 40 42 31 32
72 63 63 63 62 59 61 63 68 64 67 72 76 69 63 51 44 42 37 39 52 54 53 50 44 37 30 29 25 15 12 11 13 15 20 33 38 40 42 43 39 39 45 39 43 46 45 40 42
68 69 66 64 64 62 61 63 69 69 69 76 68 66 48 40 40 37 38 48 57 55 54 50 43 37 31 31 27 19 16 12 14 11 18 34 43 40 42 43 43 45 47 45 45 45 46 51 53
64 71 69 66 65 64 65 70 67 67 64 66 65 50 38 37 37 37 43 54 57 56 54 49 44 38 34 32 30 22 20 16 12 13 13 25 43 44 44 46 45 43 50 57 59 56 52 56 61
63 66 68 71 65 61 61 61 62 63 64 62 60 40 36 38 37 41 52 58 59 56 53 50 44 40 36 36 32 26 23 20 16 12 12 16 35 44 45 47 47 45 49 54 62 61 59 60 66
64 64 64 65 62 63 64 65 66 63 59 48 44 31 32 39 40 48 57 60 59 55 53 50 46 43 36 39 38 32 29 24 22 18 15 13 21 28 42 49 49 52 53 53 61 64 66 70 69
62 59 62 65 64 61 59 61 61 57 46 34 32 26 31 40 47 54 57 59 56 54 53 51 47 44 41 42 42 37 31 26 25 24 24 21 17 23 25 27 45 54 57 60 63 65 67 70 71
Wind_Direction
259 257 259 260 264 267 270 269 268 266 270 272 272 274 274 274 278 279 281 282 284 286 288 289 287 289 286 290 288 283 275 275 269 265 266 264 263 261 259 258 255 254 253 252 254 255 257 257 259
255 256 256 259 264 267 268 269 268 266 270 270 273 270 272 271 270 274 277 279 282 284 286 284 285 285 283 285 289 290 287 280 273 269 264 261 260 262 260 261 258 256 254 253 253 254 254 256 257
254 255 257 261 264 268 266 269 269 266 269 266 265 268 272 270 272 273 275 280 284 286 283 282 283 284 284 290 289 293 290 284 278 275 267 261 259 264 266 263 261 259 258 256 254 254 253 254 255
257 256 256 259 262 265 264 267 270 271 268 264 264 269 269 271 271 276 278 284 286 283 280 279 281 284 287 289 291 294 292 286 279 273 267 261 264 266 269 268 262 260 259 258 256 252 255 253 253
255 257 258 259 260 261 264 267 269 268 265 265 271 273 271 272 276 279 281 284 287 284 281 281 283 285 288 287 291 295 288 280 277 269 260 256 255 272 276 251 248 247 265 263 261 261 256 254 252
254 255 257 258 258 262 263 263 264 264 265 268 268 271 271 274 278 287 282 281 283 281 280 282 284 286 287 286 291 292 287 278 273 266 253 261 253 223 195 204 212 216 256 242 243 257 253 250 251
257 259 259 259 259 261 262 262 263 265 265 266 267 267 271 278 278 280 279 280 280 281 281 284 285 287 285 289 290 289 283 279 267 246 239 221 190 180 206 209 210 208 217 234 245 259 253 248 250
259 258 258 262 263 266 262 262 263 265 266 266 269 267 270 274 278 277 278 285 282 283 281 281 283 283 284 286 287 286 280 275 258 232 220 199 186 203 219 226 219 206 212 222 233 254 255 249 245
272 261 260 256 254 257 260 262 264 264 266 267 268 269 274 272 273 277 282 282 281 282 281 280 281 282 282 283 282 281 278 268 249 221 217 201 207 206 217 223 221 215 212 228 220 247 255 251 234
274 264 256 256 253 254 257 259 261 262 264 268 269 271 273 271 275 280 281 279 279 281 282 282 283 280 281 277 280 280 276 260 234 222 228 215 212 210 217 218 216 216 228 256 245 250 241 243 230
275 271 263 256 255 253 257 258 261 264 265 267 270 272 274 277 278 278 279 280 279 282 285 291 288 282 280 276 278 278 271 249 228 228 238 222 221 220 222 207 214 222 224 233 242 198 200 200 191
275 272 268 258 253 254 256 259 262 261 264 269 270 274 274 273 277 277 277 279 281 282 287 290 285 283 278 277 276 272 255 236 228 234 246 229 220 220 222 217 212 219 221 230 216 194 195 198 196
268 265 270 266 260 256 258 262 263 265 267 269 270 270 271 273 274 276 278 280 282 283 287 289 283 281 274 270 272 252 238 229 229 242 238 233 228 226 216 220 213 218 221 228 201 192 201 206 205
262 264 268 266 260 259 259 260 262 263 265 273 271 266 268 270 274 277 280 281 282 286 288 284 280 283 267 264 252 234 232 230 239 236 240 236 232 230 220 222 215 218 223 225 221 197 204 210 216
264 262 265 266 259 256 257 263 264 266 267 264 265 266 272 275 275 275 277 283 283 287 283 278 277 270 259 244 229 232 233 241 244 245 241 235 235 228 221 220 221 225 225 220 224 210 218 219 229
259 257 258 259 257 256 256 253 259 259 261 263 270 273 274 272 274 277 283 286 284 281 275 279 267 256 237 221 229 233 237 243 246 248 242 238 232 225 220 221 223 228 228 222 226 225 224 228 239
257 254 255 258 256 255 256 255 253 260 262 266 268 270 273 277 278 281 284 290 285 276 272 264 255 234 215 221 229 232 237 249 249 246 238 237 229 221 218 215 223 228 229 228 225 229 230 237 243
252 252 255 255 248 250 257 258 249 262 262 264 267 270 273 275 277 282 288 289 281 273 265 250 233 213 211 221 224 232 242 250 249 248 237 231 221 216 214 215 220 223 227 226 226 227 237 239 244
253 250 250 250 244 242 248 252 254 259 261 263 265 267 272 274 278 281 289 290 279 267 252 240 213 201 208 221 224 236 253 247 250 249 234 219 212 205 212 213 213 225 225 226 229 233 237 241 239
248 246 246 247 246 237 244 248 252 259 260 263 261 267 271 275 280 284 291 288 276 259 243 213 199 202 211 218 222 243 254 251 257 263 228 215 207 211 207 214 211 219 223 223 230 227 229 228 240
242 244 246 248 246 241 242 245 248 255 259 262 264 269 272 276 277 285 288 279 266 248 211 198 196 201 210 215 230 247 249 247 248 246 229 223 208 209 206 213 213 214 220 222 223 229 227 230 241
241 241 243 240 243 242 243 242 251 257 258 258 267 269 270 274 283 282 279 268 250 220 196 194 194 202 210 210 233 237 248 259 249 240 242 217 202 205 211 214 216 216 217 221 222 221 223 232 233
238 238 236 240 242 243 245 241 247 252 257 260 264 271 277 281 281 275 260 248 232 202 191 192 197 201 206 213 229 230 253 267 249 246 240 214 198 213 215 211 216 214 205 214 217 218 229 227 222
236 234 239 242 240 241 245 243 246 251 256 263 269 274 281 281 275 260 241 228 206 196 189 195 197 200 203 219 222 223 231 253 245 250 235 203 197 208 217 213 215 204 212 210 220 225 220 236 240
235 230 238 236 240 244 249 249 251 257 262 265 270 277 281 273 255 241 222 209 197 190 191 196 196 200 200 221 217 212 218 241 236 248 225 200 194 205 214 214 208 206 209 211 221 215 223 237 234
231 229 233 236 239 241 244 247 251 259 265 269 273 281 283 256 242 224 212 194 194 190 193 196 197 199 204 216 215 210 217 223 223 231 225 200 195 204 216 217 211 214 212 217 214 220 226 230 238
231 232 234 235 239 244 250 253 257 261 264 269 280 281 268 235 229 218 199 193 192 193 193 195 198 200 207 217 213 212 218 225 213 225 230 215 205 208 216 211 212 213 205 214 225 219 226 236 238
230 234 237 237 239 244 248 252 253 258 264 275 276 274 244 222 219 207 191 193 193 195 194 196 198 204 210 219 215 216 219 217 215 216 230 229 219 212 214 219 217 212 216 215 218 222 228 236 242
232 233 236 238 241 244 247 251 255 260 268 271 270 256 234 215 206 193 193 195 195 197 198 199 200 207 209 218 220 221 221 219 219 221 217 228 228 228 227 219 222 219 217 223 227 230 234 239 244
233 232 235 238 241 245 248 252 256 261 264 262 258 248 226 204 193 193 197 198 198 200 201 202 205 211 216 221 225 225 226 227 225 230 228 226 222 223 222 227 230 229 227 228 227 231 239 245 250
Height
10788 10788 10789 10790 10792 10795 10790 10786 10793 10796 10797 10796 10798 10798 10796 10796 10794 10795 10795 10797 10795 10794 10791 10789 10788 10786 10785 10782 10783 10783 10786 10785 10784 10783 10782 10780 10778 10779 10781 10783 10787 10788 10790 10792 10793 10795 10797 10799 10801
10777 10778 10780 10782 10785 10786 10778 10773 10782 10787 10788 10786 10788 10788 10788 10788 10783 10787 10789 10788 10787 10786 10785 10782 10779 10777 10774 10774 10773 10772 10773 10775 10773 10772 10771 10771 10769 10768 10772 10772 10773 10775 10778 10781 10783 10785 10786 10787 10788
10768 10769 10770 10774 10776 10775 10765 10765 10771 10775 10777 10778 10778 10777 10780 10776 10774 10778 10779 10780 10776 10774 10775 10774 10770 10768 10765 10763 10764 10763 10763 10763 10762 10762 10760 10760 10761 10764 10763 10764 10763 10766 10768 10770 10773 10773 10773 10775 10777
10758 10761 10762 10765 10766 10761 10754 10755 10760 10765 10766 10765 10768 10772 10770 10765 10765 10767 10769 10770 10766 10762 10765 10766 10761 10759 10756 10754 10753 10754 10753 10752 10752 10752 10752 10753 10757 10758 10756 10756 10756 10757 10759 10760 10762 10764 10762 10764 10767
10747 10751 10754 10757 10754 10751 10741 10745 10752 10753 10754 10755 10761 10760 10758 10754 10755 10756 10757 10758 10755 10750 10751 10755 10751 10748 10747 10744 10743 10745 10744 10742 10742 10743 10745 10745 10750 10750 10752 10749 10751 10750 10752 10754 10754 10753 10753 10755 10757
10736 10739 10744 10746 10743 10742 10734 10730 10738 10740 10745 10750 10752 10750 10744 10740 10743 10745 10745 10744 10742 10737 10738 10744 10740 10738 10736 10735 10733 10734 10734 10732 10733 10735 10736 10740 10741 10744 10742 10744 10745 10747 10745 10747 10746 10743 10742 10745 10748
10724 10727 10732 10734 10734 10733 10721 10717 10723 10729 10736 10737 10742 10739 10733 10731 10732 10731 10729 10728 10728 10723 10726 10729 10728 10725 10722 10722 10721 10723 10722 10722 10722 10724 10728 10731 10735 10735 10735 10734 10734 10737 10737 10740 10739 10736 10735 10738 10741
10710 10715 10720 10722 10721 10722 10704 10705 10712 10721 10722 10726 10727 10726 10722 10722 10720 10717 10714 10714 10713 10709 10714 10715 10714 10711 10709 10708 10710 10710 10710 10711 10712 10712 10716 10720 10722 10723 10725 10726 10728 10729 10727 10730 10734 10732 10732 10733 10735
10696 10704 10708 10705 10708 10700 10694 10696 10704 10707 10709 10712 10713 10714 10712 10711 10707 10704 10704 10699 10697 10695 10699 10704 10700 10697 10695 10695 10696 10696 10698 10698 10700 10702 10705 10707 10708 10711 10715 10717 10722 10723 10725 10726 10726 10727 10728 10728 10730
10682 10687 10690 10689 10688 10689 10688 10686 10689 10694 10697 10698 10698 10700 10700 10696 10697 10693 10690 10685 10683 10682 10681 10688 10686 10680 10680 10682 10682 10683 10684 10686 10688 10691 10694 10697 10698 10702 10705 10710 10715 10717 10720 10720 10723 10723 10724 10725 10726
10671 10677 10672 10673 10675 10676 10677 10672 10673 10686 10684 10683 10683 10686 10688 10684 10682 10680 10676 10670 10668 10667 10663 10669 10669 10661 10664 10667 10668 10669 10671 10674 10676 10681 10684 10688 10690 10691 10699 10704 10709 10712 10714 10715 10720 10720 10722 10724 10726
10658 10658 10657 10658 10662 10661 10660 10656 10666 10668 10671 10670 10669 10674 10675 10671 10668 10665 10661 10656 10653 10649 10648 10653 10653 10647 10648 10652 10654 10656 10659 10662 10666 10670 10672 10677 10682 10687 10693 10698 10702 10706 10709 10711 10716 10716 10718 10721 10723
10640 10642 10643 10644 10647 10644 10644 10646 10647 10660 10657 10651 10658 10662 10662 10659 10656 10651 10646 10642 10639 10635 10632 10636 10637 10632 10635 10638 10641 10645 10647 10652 10656 10659 10661 10666 10673 10678 10685 10691 10695 10699 10703 10707 10710 10711 10715 10717 10719
10623 10626 10630 10631 10630 10630 10633 10634 10639 10640 10638 10643 10645 10647 10646 10645 10643 10639 10634 10627 10625 10621 10620 10621 10623 10621 10622 10625 10630 10635 10639 10642 10646 10649 10651 10656 10662 10668 10675 10681 10687 10692 10698 10702 10706 10706 10709 10713 10716
10604 10609 10614 10616 10615 10619 10618 10628 10627 10624 10625 10632 10629 10633 10634 10633 10630 10625 10621 10616 10611 10610 10609 10609 10612 10610 10611 10616 10621 10628 10632 10633 10636 10639 10642 10645 10650 10657 10662 10670 10677 10683 10690 10696 10699 10702 10704 10707 10712
10582 10591 10594 10595 10599 10602 10607 10615 10614 10614 10612 10618 10617 10619 10619 10617 10616 10613 10608 10604 10600 10598 10599 10602 10598 10601 10604 10610 10617 10622 10624 10626 10628 10630 10633 10636 10640 10646 10653 10660 10668 10674 10680 10687 10691 10695 10699 10702 10707
10562 10571 10577 10581 10584 10587 10593 10599 10604 10595 10601 10603 10604 10603 10603 10603 10600 10599 10594 10594 10589 10587 10590 10590 10590 10593 10597 10605 10611 10615 10618 10620 10621 10622 10624 10627 10630 10636 10643 10649 10657 10666 10671 10678 10682 10687 10693 10696 10701
10540 10552 10561 10566 10567 10570 10579 10588 10589 10582 10587 10587 10588 10591 10588 10591 10587 10584 10584 10579 10577 10577 10580 10578 10582 10587 10593 10601 10605 10609 10611 10613 10612 10612 10615 10618 10622 10628 10634 10640 10647 10656 10662 10667 10674 10679 10685 10690 10695
10524 10534 10542 10545 10548 10557 10564 10571 10573 10572 10568 10575 10576 10573 10577 10576 10575 10570 10569 10564 10564 10566 10567 10570 10576 10581 10588 10595 10600 10603 10604 10604 10604 10604 10606 10610 10616 10623 10628 10635 10641 10648 10655 10660 10665 10672 10678 10683 10687
10506 10515 10523 10526 10532 10541 10546 10555 10556 10559 10558 10557 10561 10562 10562 10562 10561 10556 10555 10551 10552 10556 10557 10564 10570 10577 10585 10591 10594 10597 10598 10597 10599 10599 10599 10603 10609 10615 10623 10630 10635 10642 10647 10652 10657 10665 10671 10676 10680
10489 10498 10503 10514 10516 10526 10535 10540 10543 10541 10541 10546 10548 10549 10550 10547 10546 10546 10542 10540 10544 10547 10550 10559 10565 10573 10580 10585 10590 10592 10592 10592 10593 10594 10595 10598 10603 10611 10617 10623 10628 10634 10640 10645 10650 10657 10662 10667 10672
10474 10482 10489 10496 10503 10510 10520 10527 10528 10518 10528 10532 10535 10535 10533 10534 10533 10531 10527 10529 10534 10538 10546 10555 10561 10569 10576 10580 10586 10587 10587 10585 10587 10589 10590 10594 10599 10606 10611 10617 10622 10627 10632 10638 10643 10648 10655 10660 10664
10459 10467 10475 10482 10489 10497 10499 10513 10509 10508 10513 10518 10519 10518 10518 10518 10515 10512 10512 10518 10528 10535 10541 10550 10558 10564 10571 10576 10581 10581 10581 10581 10581 10582 10584 10588 10595 10601 10605 10610 10615 10621 10625 10631 10637 10642 10648 10653 10658
10445 10452 10460 10467 10474 10485 10485 10495 10491 10499 10500 10505 10504 10505 10504 10499 10496 10495 10500 10508 10519 10529 10537 10544 10552 10559 10566 10572 10576 10576 10576 10576 10575 10576 10577 10581 10590 10593 10597 10603 10609 10614 10620 10626 10632 10637 10643 10648 10649
10429 10437 10443 10453 10460 10469 10474 10479 10478 10482 10488 10491 10490 10490 10486 10479 10478 10482 10490 10500 10511 10521 10528 10537 10545 10553 10560 10566 10569 10570 10572 10573 10572 10571 10571 10574 10583 10588 10592 10597 10603 10609 10614 10620 10626 10632 10636 10639 10640
10414 10422 10428 10438 10446 10454 10459 10463 10466 10470 10473 10476 10476 10472 10468 10466 10468 10475 10483 10493 10505 10515 10524 10533 10541 10548 10554 10559 10563 10565 10568 10569 10569 10569 10569 10571 10576 10581 10586 10592 10597 10603 10609 10615 10620 10625 10626 10628 10630
10398 10407 10414 10424 10431 10438 10443 10449 10454 10458 10462 10462 10463 10457 10456 10458 10463 10471 10477 10488 10501 10510 10519 10527 10536 10543 10549 10554 10557 10559 10562 10565 10566 10568 10568 10569 10572 10577 10581 10586 10591 10596 10601 10608 10612 10614 10616 10616 10616
10382 10392 10400 10410 10419 10426 10430 10435 10442 10446 10450 10448 10448 10448 10446 10451 10458 10465 10472 10485 10495 10505 10514 10522 10530 10537 10543 10547 10551 10553 10557 10560 10563 10565 10567 10568 10569 10572 10576 10582 10587 10591 10596 10598 10602 10605 10606 10606 10605
10367 10376 10386 10395 10404 10410 10418 10425 10428 10434 10436 10437 10437 10438 10438 10445 10451 10460 10469 10481 10491 10500 10509 10516 10523 10530 10536 10541 10544 10548 10551 10555 10559 10562 10563 10565 10567 10568 10570 10575 10579 10584 10588 10592 10596 10598 10598 10598 10599
10351 10362 10372 10381 10390 10399 10406 10413 10415 10422 10426 10429 10428 10429 10433 10439 10447 10458 10468 10478 10488 10496 10504 10511 10518 10524 10529 10533 10538 10543 10546 10550 10554 10556 10559 10561 10562 10564 10565 10567 10572 10576 10580 10583 10585 10588 10590 10590 10589